Regional Weather Roundup
Issued by NWS

Home | Current Version | Previous Version | Graphics & Text | Print | Product List | Glossary On
Versions: 1 2 3 4 5 6 7 8 9 10 11 12 13 14 15 16 17 18 19 20 21 22 23 24 25 26 27 28 29 30 31 32 33 34 35 36 37 38 39 40 41 42 43 44 45 46 47 48 49 50
000
ASUS43 KBIS 280010
RWRND

NORTH DAKOTA REGIONAL WEATHER ROUNDUP
NATIONAL WEATHER SERVICE BISMARCK ND
700 PM CDT TUE SEP 27 2016

NOTE: "FAIR" INDICATES FEW OR NO CLOUDS BELOW 12,000 FEET WITH NO
SIGNIFICANT WEATHER AND/OR OBSTRUCTIONS TO VISIBILITY.


NDZ001>003-009>011-017-280100-
NORTHWEST NORTH DAKOTA

CITY           SKY/WX    TMP DP  RH WIND       PRES   REMARKS
WILLISTON      CLEAR     78  53  41 CALM      29.91S
6HR MIN TEMP:  67; 6HR MAX TEMP:  80;

MINOT          CLEAR     65  43  44 NE6       29.94S
MINOT AFB      CLEAR     65  43  44 E6        29.94R
$$

NDZ018>021-031>035-040>046-280100-
SOUTHWEST NORTH DAKOTA

CITY           SKY/WX    TMP DP  RH WIND       PRES   REMARKS
BISMARCK       CLEAR     70  42  36 N7        29.95R
6HR MIN TEMP:  67; 6HR MAX TEMP:  74;

DICKINSON      CLEAR     73  45  36 N5        29.94R
GARRISON         N/A     67  46  47 CALM      29.95R
6HR MIN TEMP:  66; 6HR MAX TEMP:  72;

HETTINGER ARPT CLEAR     75  50  41 NW8       29.97R
$$

NDZ004>008-012>016-024-026-027-054-280100-
NORTHEAST NORTH DAKOTA

CITY           SKY/WX    TMP DP  RH WIND       PRES   REMARKS
GRAND FORKS    PTCLDY    56  44  64 N14G21    29.94R
GRND FRKS AFB  CLEAR     54  44  68 NE9       29.95R
DEVILS LAKE    CLEAR     59  36  42 N9        29.96R
$$

NDZ022-023-025-028>030-036>039-047>053-280100-
SOUTHEAST NORTH DAKOTA

CITY           SKY/WX    TMP DP  RH WIND       PRES   REMARKS
FARGO          CLEAR     56  43  61 N13       29.92R
6HR MIN TEMP:  56; 6HR MAX TEMP:  65;

JAMESTOWN      CLEAR     60  35  39 N5        29.93R
$$





USA.gov is the U.S. government's official web portal to all federal, state and local government web resources and services.